Tracking 19193 objects as of 24-Jun-2018
HD Live streaming from Space Station
objects crossing your sky now

FENGYUN 1C DEB

Track FENGYUN 1C DEB now!
10-day predictions


NORAD ID: 37699
Int'l Code: 1999-025ELQ
Perigee: 834.4 km
Apogee: 1,019.5 km
Inclination: 98.0 °
Period: 103.4 minutes
Semi major axis: 7297 km
RCS: 0.0139 m2 (small)
Launch date: May 10, 1999
Source: People's Republic of China (PRC)
Launch site: Taiyaun Space Center, China (TSC)

Note: This is SATELLITE DEBRIS
aabbcc
Your satellite tracking list
Your tracking list is empty




NASA's NSSDC Master Catalog

Two Line Element Set (TLE):
1 37699U 99025ELQ 18168.75834674  .00000362  00000-0  28763-3 0  9997
2 37699  97.9801 342.3425 0126810  55.2950  12.0748 13.92517870437286
Source of the keplerian elements: AFSPC